Dillon, Illinois
Current Conditions -  °F | °C
As of 8:54 PM on Sunday 23 Nov 2014 (Local Time) from KPIA Reporting Station
Light Rain Light Rain  
Wind Chill: 51°   Ceiling: 200
Heat Index: 51°   Visibility: 2mi
Dew Point: 48°   Wind: 6mph
Humidity: 89%   Direction: 190°S
Pressure: 29.21"   Gusts: NA
Location:  40.4817°N, 89.4923°W
Report Text: KPIA 240254Z 19005KT 2SM -RA BR OVC002 11/09 A2921 RMK AO2 SLP891 P0004 60012 T01060089 56023
Loading
Personal Weather Stations






























Interactive Weather Map New forecast layout! Learn more

10-Day Weather Forecast

Advertisements
Track Severe Weather on mobile